This is the latest recevied weather packets stored in our database for station/object G8SIB-9. If no packets are shown the sender has not sent any weather packets the latest 10 day(s).
| Time | Temp. | Humidity | Pressure | Rain* | Wind** | Luminosity | Snow |
|---|---|---|---|---|---|---|---|
| 1777470270 | 16.67° C | 30% | 1022.9 hPa | 0 mm | - | - | - |
| 1777469669 | 17.22° C | 30% | 1022.9 hPa | 0 mm | - | - | - |
| 1777469068 | 17.22° C | 29% | 1023 hPa | 0 mm | - | - | - |
| 1777468468 | 16.67° C | 29% | 1023.1 hPa | 0 mm | - | - | - |
| 1777467867 | 17.22° C | 28% | 1023 hPa | 0 mm | - | - | - |
| 1777467265 | 17.22° C | 28% | 1023 hPa | 0 mm | - | - | - |
| 1777466665 | 16.67° C | 29% | 1023.1 hPa | 0 mm | - | - | - |
| 1777466065 | 16.67° C | 29% | 1023.1 hPa | 0 mm | - | - | - |
| 1777465464 | 16.67° C | 30% | 1023.2 hPa | 0 mm | - | - | - |
| 1777464864 | 16.67° C | 30% | 1023.2 hPa | 0 mm | - | - | - |
| 1777464263 | 17.22° C | 31% | 1023.2 hPa | 0 mm | - | - | - |
| 1777463662 | 17.22° C | 30% | 1023.3 hPa | 0 mm | - | - | - |
| 1777463061 | 16.11° C | 31% | 1023.3 hPa | 0 mm | - | - | - |
| 1777462460 | 16.67° C | 31% | 1023.3 hPa | 0 mm | - | - | - |
| 1777461860 | 16.67° C | 30% | 1023.4 hPa | 0 mm | - | - | - |
| 1777461258 | 16.67° C | 30% | 1023.2 hPa | 0 mm | - | - | - |
| 1777460658 | 16.11° C | 32% | 1023.2 hPa | 0 mm | - | - | - |
| 1777460058 | 17.22° C | 32% | 1023.3 hPa | 0 mm | - | - | - |
| 1777459457 | 16.67° C | 34% | 1023.1 hPa | 0 mm | - | - | - |
| 1777458856 | 16.11° C | 34% | 1023.3 hPa | 0 mm | - | - | - |
| 1777458255 | 16.11° C | 34% | 1023.5 hPa | 0 mm | - | - | - |
| 1777457655 | 16.11° C | 34% | 1023.4 hPa | 0 mm | - | - | - |
| 1777457054 | 15.56° C | 35% | 1023.4 hPa | 0 mm | - | - | - |
| 1777456454 | 15.56° C | 36% | 1023.3 hPa | 0 mm | - | - | - |
| 1777455853 | 15.56° C | 35% | 1023.4 hPa | 0 mm | - | - | - |
* Rain latest hour (hover to see other rain measurements)
** Current wind speed in m/s (hover to see current wind gust speed)